Find Kuiper-00158

NORAD ID: 65776 Int'l Des: 2025-217 Owner: KUIP Country: US Constellation: amazon-leo operational
LEOCIRCULAR

Aktuelle Ansicht

3D-Globus wird geladen...

Über Kuiper-00158

Beschreibung wird geladen...

Nächste Überflüge

Passes for default location (London). Set your location on the main map for personalized predictions.

Höhenverlauf

Loading altitude history...

Zweizeiliger Elementsatz

1 65776U 25217Q 26146.54609023 .00004031 00000-0 54088-3 0 9992
2 65776 51.8972 60.6077 0000944 35.9030 324.1996 14.81221547 36387
Epoch: 26. Mai 2026 • Age: 10 hours

Aktueller Status

Höhe 635.1 km
Geschwindigkeit 7.54 km/s
Subsatellitenpunkt -31.98°S, 165.71°E
Startdatum 25. Sept. 2025
Alter 0.6 years
Typ internet

Technische Details

Klassifizierung Payload
Masse 490.00 kg
Trockenmasse 490.00 kg
Gesamtmasse 490.00 kg
Länge 1.80 m
Durchmesser 0.70 m
Spannweite 5.00 m
Form Box + 2 pan
Hersteller KUIP
Bus-Typ Kuiper
Phasenstatus In Orbit
Besitzer/Staat KUIP/US

Most Searched